Weather History for MMTG - March, 2013

Change the Weather History Date:

Tuesday, March 5, 2013

  Actual Average Record
Temperature  
Mean Temperature 80 °F -  
Max Temperature 98 °F 79 °F - (-1)
Min Temperature 61 °F 60 °F - (-1)
Cooling Degree Days 14    
Growing Degree Days 30 (Base 50)    
Moisture  
Dew Point 53 °F    
Average Humidity 43    
Maximum Humidity 88    
Minimum Humidity 11    
Precipitation  
Precipitation 0.00 in - - ()
Sea Level Pressure  
Sea Level Pressure 29.93 in    
Wind  
Wind Speed 4 mph ()    
Max Wind Speed 20 mph    
Max Gust Speed -    
Visibility 8.9 miles    
Events      
Averages and records for this station are not official NWS values.
T = Trace of Precipitation, MM = Missing Value Source: Averaged Metar Reports

Daily Weather History Graph

Daily Weather History Graph

Search for Another Location

Airport or City:

Trip Planner

Search our weather history database for the weather conditions in past years. The results will help you decide how hot, cold, wet, or windy it might be!

Date:

Astronomy

Mar. 05, 2013 Rise Set
Actual Time 6:27 AM CST 6:20 PM CST
Civil Twilight 6:05 AM CST 6:41 PM CST
Nautical Twilight 5:40 AM CST 7:06 PM CST
Astronomical Twilight 5:15 AM CST 7:31 PM CST
Moon 1:02 AM CST (3/5) 12:37 PM CST (3/5)
Length of Visible Light 12h 36m
Length of Day
11h 53m
Last Quarter, 40% of the Moon is Illuminated
Mar 5
Last Quarter
Mar 11
New
Mar 19
First Quarter
Mar 27
Full
Apr 2
Last Quarter

Hourly Weather History & Observations

Time (CST) Temp. Heat Index Dew Point Humidity Pressure Visibility Wind Dir Wind Speed Gust Speed Precip Events Conditions
2:35 AM 65 °F - 56 °F 64% 29.91 in 9 mi NW 2.2 mph - -   Scattered Clouds
5:39 AM 62 °F - 56 °F 75% 29.96 in 9 mi Calm Calm - -   Clear
5:57 AM 53.6 °F - 50.0 °F 88% 29.95 in 8.0 mi Calm Calm - N/A   Scattered Clouds
6:45 AM 53.6 °F - 48.2 °F 82% 30.04 in 10.0 mi Calm Calm - N/A   Scattered Clouds
7:49 AM 64.4 °F - 51.8 °F 64% 30.07 in 10.0 mi Calm Calm - N/A   Scattered Clouds
8:38 AM 70 °F - 52 °F 42% 30.02 in 9 mi SW 2.2 mph - -   Scattered Clouds
8:45 AM 69.8 °F - 51.8 °F 53% 30.00 in 10.0 mi Calm Calm - N/A   Clear
9:42 AM 77.0 °F - 51.8 °F 41% 30.06 in 10.0 mi ESE 4.6 mph - N/A   Clear
10:51 AM 82.4 °F - 51.8 °F 35% 30.03 in 10.0 mi East 4.6 mph - N/A   Scattered Clouds
11:35 AM 85 °F - 51 °F 21% 29.95 in 9 mi NW 2.2 mph - -   Scattered Clouds
11:48 AM 87.8 °F - 50.0 °F 27% 29.89 in 10.0 mi SE 4.6 mph - N/A   Scattered Clouds
12:47 PM 89.6 °F - 48.2 °F 24% 29.94 in 8.0 mi ENE 6.9 mph - N/A   Clear
1:47 PM 93.2 °F - 48.2 °F 21% 29.90 in 8.0 mi Calm Calm - N/A   Clear
2:38 PM 96 °F - 48 °F 11% 29.78 in 9 mi SSE 2.2 mph - -   Scattered Clouds
2:47 PM 95.0 °F - 46.4 °F 19% 29.77 in 10.0 mi NW 3.5 mph - N/A   Scattered Clouds
3:51 PM 96.8 °F - 42.8 °F 16% 29.84 in 10.0 mi ENE 5.8 mph - N/A   Clear
4:49 PM 96.8 °F - 46.4 °F 18% 29.84 in 8.0 mi NNW 10.4 mph - N/A   Clear
5:38 PM 86 °F - 61 °F 33% 29.79 in 9 mi NNW 6.7 mph - -  
5:41 PM 91.4 °F 89.1 °F 53.6 °F 28% 29.79 in 8.0 mi NW 11.5 mph - N/A   Clear
6:51 PM 82.4 °F 82.5 °F 59.0 °F 45% 29.92 in 8.0 mi NW 12.7 mph - N/A   Clear
7:49 PM 82.4 °F 82.5 °F 59.0 °F 45% 29.96 in 8.0 mi NNW 11.5 mph - N/A   Clear
8:38 PM 77 °F - 61 °F 48% 29.89 in 9 mi West 2.2 mph - -   Scattered Clouds
8:45 PM 78.8 °F - 59.0 °F 51% 29.89 in 8.0 mi WNW 11.5 mph - N/A   Clear
9:47 PM 77.0 °F - 59.0 °F 54% 30.00 in 8.0 mi NW 19.6 mph - N/A   Clear
10:50 PM 75.2 °F - 59.0 °F 57% 30.01 in 8.0 mi NW 12.7 mph - N/A   Clear
11:35 PM 72 °F - 62 °F 62% 29.95 in 9 mi West 4.5 mph - -